Regional Weather Roundup
Issued by NWS

Home | Current Version | Previous Version | Graphics & Text | Print | Product List | Glossary On
Versions: 1 2 3 4 5 6 7 8 9 10 11 12 13 14 15 16 17 18 19 20 21 22 23 24 25 26 27 28 29 30 31 32 33 34 35 36 37 38 39 40 41 42 43 44 45 46 47 48 49 50
000
ASUS45 KBOU 281307
RWRCO

WEATHER ROUNDUP FOR COLORADO
NATIONAL WEATHER SERVICE DENVER/BOULDER CO
700 AM MDT THU MAY 28 2015

NOTE: "FAIR" INDICATES FEW OR NO CLOUDS BELOW 12000 FEET WITH NO
SIGNIFICANT WEATHER AND/OR OBSTRUCTIONS TO VISIBILITY.

COZ001>005-013-030-031-281400-
...NORTHWEST COLORADO...

CITY           SKY/WX    TMP DP  RH WIND       PRES   REMARKS
CRAIG          CLOUDY    49  44  83 CALM      30.17R
HAYDEN         CLOUDY    45  37  76 SW5       30.18R
MEEKER         CLOUDY    47  42  83 CALM      30.18R
MOUNT WERNER   NOT AVBL
STEAMBOAT SPGS CLOUDY    44  42  95 CALM      30.18S
WALDEN         PTSUNNY   37  36  93 SE7       30.21R
$$

COZ006>008-011-281400-
...WEST CENTRAL VALLEYS...

CITY           SKY/WX    TMP DP  RH WIND       PRES   REMARKS
GRAND JUNCTION SUNNY     50  48  93 W8        30.13R
MONTROSE       PTSUNNY   47  43  86 S8        30.18S
EAGLE          MOSUNNY   43  43 100 VRB6      30.22S
RIFLE          MOSUNNY   49  45  86 CALM      30.16S
DELTA          SUNNY     49  44  83 NE3       30.16R
NUCLA          CLOUDY    46  41  81 E3        30.20R
$$

COZ017>023-064>068-281400-
...SOUTHWEST COLORADO...

CITY           SKY/WX    TMP DP  RH WIND       PRES   REMARKS
DURANGO        MOSUNNY   46  39  76 NE3       30.17R
CORTEZ         SUNNY     44  38  79 E3        30.15R
PAGOSA SPRINGS MOSUNNY   42  34  71 CALM      30.22S
TELLURIDE      PTSUNNY   42  33  71 SE6       30.30S
WOLF CREEK PAS NOT AVBL
$$

COZ009-010-012-014-032>034-037-058>063-281400-
...CENTRAL COLORADO...

CITY           SKY/WX    TMP DP  RH WIND       PRES   REMARKS
ASPEN          PTSUNNY   39  36  89 SE3       30.23R
BUENA VISTA    MOSUNNY   44  37  75 CALM      30.24R
COPPER MTN     MOSUNNY   37  28  70 S10       30.38S
BERTHOUD PASS  PTSUNNY   30  23  74 MISG      30.41R
COTTONWOOD PAS MOSUNNY   45  32  61 CALM      30.31R
GUNNISON       SUNNY     37  34  87 N5        30.28S
KREMMLING      CLOUDY    43  37  81 CALM      30.24R
LEADVILLE      MOSUNNY   34  30  85 NW6       30.28S WCI  29
MONARCH PASS   MOSUNNY   32  28  86 SW25      30.48S WCI  19
SALIDA         MOSUNNY   46  39  76 N3        30.29S
SUNLIGHT       MOSUNNY   36  36 100 CALM      30.35S
WILKERSON PASS PTSUNNY   36  28  75 SW10G22   30.38S
$$

COZ069>075-281400-
...SAN LUIS VALLEY/SANGRE DE CRISTO MOUNTAINS...

CITY           SKY/WX    TMP DP  RH WIND       PRES   REMARKS
ALAMOSA        MOSUNNY   41  37  86 CALM      30.23R
LA VETA PASS   MOSUNNY  N/A N/A N/A MISG      30.32F
SAGUACHE       PTSUNNY   45  36  70 N3        30.24R
$$

COZ035-036-038>040-281400-
...NORTHERN COLORADO FRONT RANGE...

CITY           SKY/WX    TMP DP  RH WIND       PRES   REMARKS
DENVER INTL AP PTSUNNY   56  53  90 W9        30.08S
DMNS CITY PARK   N/A     56  46  69 S6        30.08S
AURORA         PTSUNNY   52  47  84 SW8       30.10S
FRONT RANGE AP PTSUNNY   55  55 100 W6        30.09S FOG
ERIE MUNI ARPT CLOUDY    54  53  97 CALM      30.09R
BOULDER MUN AP PTSUNNY   52  50  93 CALM      30.08S
CENTENNIAL     PTSUNNY   53  49  86 W8        30.10F
BROOMFIELD     PTSUNNY   54  50  87 W7        30.10S
FORT COLLINS   PTSUNNY   55  52  88 CALM      30.09S
LONGMONT       CLOUDY    54  51  87 CALM      30.10S
$$

COZ041-046-047-076>085-087-088-281400-
...PIKES PEAK/PALMER DIVIDE AND SOUTHERN FOOTHILLS...

CITY           SKY/WX    TMP DP  RH WIND       PRES   REMARKS
COLO. SPRINGS  PTSUNNY   55  46  71 N8        30.12S
A. F. ACADEMY  MOSUNNY   50  40  67 N9        30.13F
ELLICOTT       PTSUNNY  N/A N/A N/A CALM      30.10S
FALCON         PTSUNNY   53  43  68 CALM      30.15F
FORT CARSON    MOSUNNY   52  41  67 NW10      30.09S
LIMON          FOG       48  48 100 CALM      30.08S VSB<1/4
MONUMENT HILL  CLOUDY    50  39  66 MISG      30.16F
TRINIDAD       MOSUNNY   52  43  71 W8        30.10S
$$

COZ042>045-048>051-090-091-281400-
...NORTHEAST COLORADO...

CITY           SKY/WX    TMP DP  RH WIND       PRES   REMARKS
GREELEY ARPT   PTSUNNY   55  54  94 N12       30.06S
AKRON          MOSUNNY   52  52 100 S7        30.02S
BURLINGTON     CLOUDY    61  57  87 SW15      30.03R
WRAY           CLOUDY    58  56  93 SW5       30.02S
STERLING       MOSUNNY   55  54  94 CALM      30.01R
HOLYOKE        PTSUNNY   59  55  88 SE3       30.01S
FORT MORGAN    MOSUNNY   54  52  94 W5        30.04S
$$

COZ086-089-092>099-281400-
...SOUTHEAST COLORADO...

CITY           SKY/WX    TMP DP  RH WIND       PRES   REMARKS
PUEBLO         PTSUNNY   54  52  93 W3        30.05S
LA JUNTA       PTSUNNY   56  54  93 S8        30.05R
LAMAR          CLOUDY    61  59  93 S7        30.00S FOG
SPRINGFIELD      N/A     58  57  97 S13       30.06R
$$


USA.gov is the U.S. government's official web portal to all federal, state and local government web resources and services.